Météo par heure à Kyyanivka

Ce jour, 4 Août, Mercredi

Heure Température Précipitation Vent Pression Humidité
00:00 +16°C° 0 mm 0 m/s 734 mmHg 69%
01:00 +15°C° 0 mm 0 m/s 734 mmHg 71%
02:00 +15°C° 0 mm 0 m/s 734 mmHg 73%
03:00 +16°C° 0 mm 1 m/s 734 mmHg 74%
04:00 +16°C° 0 mm 1 m/s 734 mmHg 75%
05:00 +16°C° 0 mm 1 m/s 734 mmHg 77%
06:00 +17°C° 0.1 mm 2 m/s 734 mmHg 74%
07:00 +18°C° 0.1 mm 2 m/s 734 mmHg 72%
08:00 +20°C° 0 mm 3 m/s 735 mmHg 69%
09:00 +22°C° 0 mm 3 m/s 735 mmHg 63%
10:00 +23°C° 0 mm 4 m/s 735 mmHg 57%
11:00 +26°C° 0 mm 4 m/s 735 mmHg 51%
12:00 +27°C° 0 mm 4 m/s 734 mmHg 49%
13:00 +27°C° 0 mm 4 m/s 734 mmHg 48%
14:00 +28°C° 0 mm 4 m/s 734 mmHg 48%
15:00 +27°C° 0 mm 4 m/s 734 mmHg 51%
16:00 +27°C° 0 mm 4 m/s 733 mmHg 53%
17:00 +27°C° 0 mm 4 m/s 733 mmHg 55%
18:00 +25°C° 0.3 mm 3 m/s 733 mmHg 64%
19:00 +23°C° 0.3 mm 2 m/s 733 mmHg 72%
20:00 +20°C° 0.3 mm 2 m/s 732 mmHg 80%
21:00 +19°C° 1.5 mm 2 m/s 733 mmHg 84%
22:00 +19°C° 1.5 mm 2 m/s 733 mmHg 88%
23:00 +18°C° 1.5 mm 2 m/s 733 mmHg 91%

Demain, 5 Août, Jeudi

Heure Température Précipitation Vent Pression Humidité
00:00 +18°C° 0.1 mm 2 m/s 733 mmHg 92%
01:00 +18°C° 0.1 mm 2 m/s 732 mmHg 93%
02:00 +17°C° 0.1 mm 2 m/s 732 mmHg 94%
03:00 +17°C° 0 mm 2 m/s 732 mmHg 93%
04:00 +17°C° 0 mm 2 m/s 732 mmHg 93%
05:00 +17°C° 0 mm 2 m/s 731 mmHg 93%
06:00 +18°C° 0 mm 2 m/s 731 mmHg 89%
07:00 +19°C° 0 mm 3 m/s 731 mmHg 86%
08:00 +21°C° 0 mm 3 m/s 731 mmHg 82%
09:00 +22°C° 0 mm 3 m/s 731 mmHg 75%
10:00 +25°C° 0 mm 4 m/s 731 mmHg 68%
11:00 +27°C° 0 mm 4 m/s 731 mmHg 62%
12:00 +28°C° 0 mm 4 m/s 730 mmHg 57%
13:00 +29°C° 0 mm 4 m/s 730 mmHg 53%
14:00 +30°C° 0 mm 5 m/s 729 mmHg 49%
15:00 +30°C° 0 mm 5 m/s 729 mmHg 50%
16:00 +30°C° 0 mm 5 m/s 728 mmHg 52%
17:00 +30°C° 0 mm 5 m/s 728 mmHg 54%
18:00 +29°C° 0 mm 5 m/s 727 mmHg 58%
19:00 +27°C° 0 mm 5 m/s 726 mmHg 62%
20:00 +26°C° 0 mm 5 m/s 726 mmHg 66%
21:00 +22°C° 4 mm 4 m/s 726 mmHg 76%
22:00 +20°C° 4 mm 3 m/s 726 mmHg 85%
23:00 +18°C° 4 mm 3 m/s 726 mmHg 95%

Après-demain, 6 Août, Vendredi

Heure Température Précipitation Vent Pression Humidité
00:00 +18°C° 0.6 mm 3 m/s 726 mmHg 94%
01:00 +19°C° 0.6 mm 4 m/s 726 mmHg 93%
02:00 +19°C° 0.6 mm 5 m/s 725 mmHg 92%
03:00 +19°C° 0 mm 4 m/s 725 mmHg 93%
04:00 +19°C° 0 mm 3 m/s 724 mmHg 94%
05:00 +19°C° 0 mm 3 m/s 724 mmHg 95%
06:00 +20°C° 0.1 mm 2 m/s 724 mmHg 91%
07:00 +21°C° 0.1 mm 2 m/s 724 mmHg 87%
08:00 +23°C° 0.1 mm 2 m/s 725 mmHg 83%
09:00 +24°C° 0.3 mm 2 m/s 725 mmHg 76%
10:00 +25°C° 0.3 mm 2 m/s 725 mmHg 69%
11:00 +26°C° 0.3 mm 2 m/s 726 mmHg 62%
12:00 +27°C° 0.1 mm 2 m/s 726 mmHg 60%
13:00 +27°C° 0.1 mm 2 m/s 726 mmHg 58%
14:00 +27°C° 0.1 mm 2 m/s 726 mmHg 55%
15:00 +27°C° 0.1 mm 2 m/s 726 mmHg 57%
16:00 +27°C° 0.1 mm 2 m/s 725 mmHg 58%
17:00 +26°C° 0.1 mm 2 m/s 725 mmHg 60%
18:00 +24°C° 0.5 mm 3 m/s 726 mmHg 69%
19:00 +21°C° 0.5 mm 3 m/s 726 mmHg 78%
20:00 +19°C° 0.5 mm 4 m/s 726 mmHg 87%
21:00 +19°C° 0.2 mm 4 m/s 727 mmHg 89%
22:00 +18°C° 0.2 mm 4 m/s 727 mmHg 91%
23:00 +18°C° 0.2 mm 4 m/s 727 mmHg 92%

7 Août, Samedi

Heure Température Précipitation Vent Pression Humidité
00:00 +17°C° 0 mm 4 m/s 728 mmHg 93%
01:00 +15°C° 0 mm 4 m/s 728 mmHg 94%
02:00 +15°C° 0 mm 4 m/s 728 mmHg 95%
03:00 +14°C° 0 mm 4 m/s 728 mmHg 95%
04:00 +14°C° 0 mm 4 m/s 729 mmHg 95%
05:00 +13°C° 0 mm 4 m/s 729 mmHg 95%
06:00 +14°C° 0 mm 4 m/s 730 mmHg 90%
07:00 +15°C° 0 mm 4 m/s 730 mmHg 86%
08:00 +15°C° 0 mm 4 m/s 731 mmHg 81%
09:00 +18°C° 0 mm 4 m/s 731 mmHg 73%
10:00 +19°C° 0 mm 4 m/s 731 mmHg 65%
11:00 +21°C° 0 mm 4 m/s 731 mmHg 57%
12:00 +22°C° 0 mm 4 m/s 731 mmHg 52%
13:00 +22°C° 0 mm 4 m/s 731 mmHg 48%
14:00 +23°C° 0 mm 4 m/s 732 mmHg 44%
15:00 +23°C° 0 mm 4 m/s 732 mmHg 45%
16:00 +23°C° 0 mm 4 m/s 732 mmHg 46%
17:00 +24°C° 0 mm 3 m/s 732 mmHg 47%
18:00 +22°C° 0 mm 3 m/s 732 mmHg 53%
19:00 +20°C° 0 mm 2 m/s 732 mmHg 59%
20:00 +19°C° 0 mm 1 m/s 732 mmHg 65%
21:00 +18°C° 0 mm 1 m/s 733 mmHg 66%
22:00 +18°C° 0 mm 1 m/s 733 mmHg 67%
23:00 +16°C° 0 mm 1 m/s 733 mmHg 68%

8 Août, Dimanche

Heure Température Précipitation Vent Pression Humidité
00:00 +15°C° 0 mm 0 m/s 733 mmHg 69%
01:00 +15°C° 0 mm 0 m/s 733 mmHg 70%
02:00 +14°C° 0 mm 0 m/s 733 mmHg 70%
03:00 +14°C° 0 mm 0 m/s 733 mmHg 71%
04:00 +14°C° 0 mm 0 m/s 733 mmHg 72%
05:00 +14°C° 0 mm 0 m/s 733 mmHg 73%
06:00 +18°C° 0 mm 1 m/s 734 mmHg 68%
07:00 +20°C° 0 mm 1 m/s 734 mmHg 64%
08:00 +22°C° 0 mm 1 m/s 734 mmHg 60%
09:00 +23°C° 0 mm 2 m/s 734 mmHg 56%
10:00 +24°C° 0 mm 2 m/s 734 mmHg 52%
11:00 +26°C° 0 mm 3 m/s 734 mmHg 49%
12:00 +26°C° 0 mm 2 m/s 734 mmHg 47%
13:00 +27°C° 0 mm 2 m/s 734 mmHg 46%
14:00 +28°C° 0 mm 2 m/s 734 mmHg 44%
15:00 +28°C° 0 mm 2 m/s 734 mmHg 45%
16:00 +28°C° 0 mm 2 m/s 734 mmHg 46%
17:00 +28°C° 0 mm 2 m/s 734 mmHg 46%
18:00 +26°C° 0 mm 2 m/s 734 mmHg 52%
19:00 +24°C° 0 mm 2 m/s 734 mmHg 59%
20:00 +21°C° 0 mm 2 m/s 734 mmHg 65%
21:00 +20°C° 0 mm 2 m/s 734 mmHg 65%
22:00 +20°C° 0 mm 2 m/s 734 mmHg 65%
23:00 +19°C° 0 mm 2 m/s 734 mmHg 65%

9 Août, Lundi

Heure Température Précipitation Vent Pression Humidité
00:00 +19°C° 0 mm 2 m/s 734 mmHg 65%
01:00 +18°C° 0 mm 2 m/s 734 mmHg 65%
02:00 +18°C° 0 mm 3 m/s 734 mmHg 65%
03:00 +18°C° 0 mm 3 m/s 734 mmHg 66%
04:00 +18°C° 0 mm 3 m/s 734 mmHg 66%
05:00 +17°C° 0 mm 3 m/s 733 mmHg 67%
06:00 +19°C° 0 mm 3 m/s 734 mmHg 64%
07:00 +21°C° 0 mm 2 m/s 734 mmHg 61%
08:00 +23°C° 0 mm 2 m/s 735 mmHg 59%
09:00 +25°C° 0 mm 2 m/s 735 mmHg 56%
10:00 +26°C° 0 mm 3 m/s 735 mmHg 54%
11:00 +27°C° 0 mm 3 m/s 736 mmHg 51%
12:00 +28°C° 0 mm 3 m/s 736 mmHg 51%
13:00 +28°C° 0 mm 3 m/s 736 mmHg 51%
14:00 +28°C° 0 mm 3 m/s 735 mmHg 51%
15:00 +28°C° 0 mm 3 m/s 735 mmHg 54%
16:00 +28°C° 0 mm 3 m/s 735 mmHg 57%
17:00 +27°C° 0 mm 4 m/s 735 mmHg 61%
18:00 +25°C° 0 mm 3 m/s 736 mmHg 68%
19:00 +22°C° 0 mm 3 m/s 736 mmHg 76%
20:00 +21°C° 0 mm 3 m/s 736 mmHg 84%
21:00 +20°C° 0 mm 3 m/s 736 mmHg 85%
22:00 +19°C° 0 mm 3 m/s 736 mmHg 86%
23:00 +19°C° 0 mm 3 m/s 736 mmHg 88%
Voir plus

Nous avons besoin de votre consentement

Meteoprog et ses fournisseurs de services peuvent stocker et accéder à des données personnelles telles que des cookies, des identifiants d'appareils ou d'autres technologies similaires sur votre appareil et traiter ces données pour personnaliser le contenu et les publicités, ainsi que pour fournir des fonctionnalités de médias sociaux et analyser le trafic.

  • Stocker et/ou accéder à des informations sur votre appareil

    Des cookies, des identifiants d'appareils ou d'autres informations peuvent être stockés ou accessibles sur votre appareil aux fins indiquées ci-dessus.

  • Annonces et contenus personnalisés, mesure des annonces et des contenus, connaissance de l'audience et développement de produits

    Les annonces et le contenu peuvent être personnalisés en fonction d'un profil. D'autres données peuvent être ajoutées pour mieux personnaliser les annonces et le contenu. Les performances des publicités et du contenu peuvent être mesurées. Il est possible d'obtenir des informations sur le public qui a vu les publicités et le contenu. Ces données peuvent être utilisées pour développer ou améliorer l'expérience de l'utilisateur, les systèmes et les logiciels.

En cliquant sur "J'accepte", vous autorisez l'utilisation de cookies, des identifiants d'appareils, des balises web ou d'autres technologies similaires. Vos paramètres peuvent être modifiés dans le navigateur de votre appareil.

Dans certains cas, des intérêts légitimes peuvent être invoqués plutôt qu'un consentement. Vous pouvez en savoir plus à ce sujet dans notre Politique de confidentialité et de cookies.